• In Belarus
  • List of Countries
  • For 7 days
  • Water Temperature
  • Satellite Maps
  • Weather Map
  • Weather Widgets
  • user-avatar
    Login

    Hourly Weather La Ceiba

    Today, 17 January, Thursday

    Time Temperature Precipitation Wind Pressure Humidity
    00:00 +23°C° 0 mm 4 mps 763 mmHg 97%
    01:00 +24°C° 0.6 mm 3 mps 763 mmHg 97%
    02:00 +24°C° 0.6 mm 3 mps 763 mmHg 97%
    03:00 +24°C° 0.6 mm 3 mps 763 mmHg 96%
    04:00 +24°C° 0.6 mm 3 mps 763 mmHg 97%
    05:00 +24°C° 0.6 mm 2 mps 763 mmHg 97%
    06:00 +24°C° 0 mm 2 mps 763 mmHg 96%
    07:00 +24°C° 0.5 mm 2 mps 763 mmHg 96%
    08:00 +25°C° 0.5 mm 2 mps 764 mmHg 95%
    09:00 +25°C° 0.5 mm 2 mps 764 mmHg 94%
    10:00 +25°C° 0.8 mm 2 mps 764 mmHg 94%
    11:00 +25°C° 0.8 mm 3 mps 763 mmHg 94%
    12:00 +26°C° 0.8 mm 3 mps 763 mmHg 94%
    13:00 +25°C° 0.8 mm 3 mps 763 mmHg 95%
    14:00 +25°C° 0.8 mm 3 mps 762 mmHg 95%
    15:00 +25°C° 0.8 mm 3 mps 762 mmHg 95%
    16:00 +25°C° 1 mm 3 mps 762 mmHg 96%
    17:00 +25°C° 1 mm 3 mps 762 mmHg 96%
    18:00 +25°C° 1 mm 3 mps 762 mmHg 96%
    19:00 +25°C° 0.8 mm 3 mps 763 mmHg 96%
    20:00 +25°C° 0.8 mm 3 mps 763 mmHg 96%
    21:00 +25°C° 0.8 mm 3 mps 763 mmHg 96%
    22:00 +25°C° 0.6 mm 2 mps 763 mmHg 96%
    23:00 +25°C° 0.6 mm 2 mps 763 mmHg 96%

    Tomorrow, 18 January, Friday

    Time Temperature Precipitation Wind Pressure Humidity
    00:00 +25°C° 0.6 mm 2 mps 763 mmHg 96%
    01:00 +25°C° 0.7 mm 2 mps 762 mmHg 96%
    02:00 +24°C° 0.7 mm 2 mps 762 mmHg 96%
    03:00 +24°C° 0.7 mm 2 mps 762 mmHg 96%
    04:00 +24°C° 0.9 mm 2 mps 762 mmHg 96%
    05:00 +24°C° 0.9 mm 2 mps 762 mmHg 96%
    06:00 +24°C° 0.9 mm 2 mps 762 mmHg 96%
    07:00 +25°C° 0.9 mm 2 mps 762 mmHg 95%
    08:00 +25°C° 0.9 mm 2 mps 763 mmHg 94%
    09:00 +26°C° 0.9 mm 2 mps 763 mmHg 93%
    10:00 +26°C° 0.8 mm 2 mps 763 mmHg 92%
    11:00 +27°C° 0.8 mm 2 mps 763 mmHg 91%
    12:00 +27°C° 0.8 mm 2 mps 762 mmHg 90%
    13:00 +27°C° 0.6 mm 2 mps 762 mmHg 90%
    14:00 +27°C° 0.6 mm 3 mps 761 mmHg 90%
    15:00 +27°C° 0.6 mm 3 mps 760 mmHg 91%
    16:00 +27°C° 0.3 mm 3 mps 760 mmHg 92%
    17:00 +26°C° 0.3 mm 3 mps 760 mmHg 94%
    18:00 +25°C° 0.3 mm 3 mps 761 mmHg 95%
    19:00 +25°C° 0.2 mm 2 mps 761 mmHg 95%
    20:00 +25°C° 0.2 mm 2 mps 761 mmHg 95%
    21:00 +25°C° 0.2 mm 2 mps 761 mmHg 95%
    22:00 +25°C° 0.1 mm 2 mps 761 mmHg 95%
    23:00 +25°C° 0.1 mm 2 mps 761 mmHg 95%

    Day after tomorrow, 19 January, Saturday

    Time Temperature Precipitation Wind Pressure Humidity
    00:00 +24°C° 0.1 mm 2 mps 761 mmHg 95%
    01:00 +24°C° 0 mm 2 mps 761 mmHg 95%
    02:00 +24°C° 0 mm 2 mps 760 mmHg 95%
    03:00 +24°C° 0 mm 2 mps 760 mmHg 95%
    04:00 +24°C° 0 mm 2 mps 760 mmHg 95%
    05:00 +23°C° 0 mm 2 mps 760 mmHg 95%
    06:00 +23°C° 0 mm 2 mps 760 mmHg 94%
    07:00 +25°C° 0 mm 1 mps 761 mmHg 87%
    08:00 +27°C° 0 mm 1 mps 761 mmHg 80%
    09:00 +29°C° 0 mm 1 mps 761 mmHg 73%
    10:00 +30°C° 0 mm 1 mps 761 mmHg 67%
    11:00 +31°C° 0 mm 2 mps 760 mmHg 62%
    12:00 +32°C° 0 mm 2 mps 760 mmHg 56%
    13:00 +32°C° 0 mm 2 mps 759 mmHg 58%
    14:00 +31°C° 0 mm 3 mps 758 mmHg 61%
    15:00 +31°C° 0 mm 3 mps 758 mmHg 63%
    16:00 +29°C° 0 mm 2 mps 758 mmHg 73%
    17:00 +28°C° 0 mm 2 mps 758 mmHg 82%
    18:00 +26°C° 0 mm 2 mps 759 mmHg 91%
    19:00 +26°C° 0 mm 1 mps 760 mmHg 93%
    20:00 +26°C° 0 mm 1 mps 760 mmHg 94%
    21:00 +26°C° 0 mm 1 mps 761 mmHg 96%
    22:00 +26°C° 0.1 mm 1 mps 761 mmHg 96%
    23:00 +26°C° 0.1 mm 1 mps 761 mmHg 96%

    20 January, Sunday

    Time Temperature Precipitation Wind Pressure Humidity
    00:00 +26°C° 0.1 mm 1 mps 761 mmHg 96%
    01:00 +25°C° 0.2 mm 1 mps 761 mmHg 96%
    02:00 +25°C° 0.2 mm 2 mps 761 mmHg 96%
    03:00 +25°C° 0.2 mm 2 mps 760 mmHg 96%
    04:00 +25°C° 0.1 mm 2 mps 761 mmHg 96%
    05:00 +25°C° 0.1 mm 2 mps 761 mmHg 96%
    06:00 +25°C° 0.1 mm 2 mps 762 mmHg 96%
    07:00 +26°C° 0.3 mm 2 mps 762 mmHg 95%
    08:00 +26°C° 0.3 mm 2 mps 763 mmHg 93%
    09:00 +27°C° 0.3 mm 2 mps 764 mmHg 92%
    10:00 +28°C° 0.2 mm 2 mps 764 mmHg 87%
    11:00 +28°C° 0.2 mm 2 mps 763 mmHg 82%
    12:00 +29°C° 0.2 mm 3 mps 763 mmHg 77%
    13:00 +29°C° 0.2 mm 3 mps 763 mmHg 78%
    14:00 +28°C° 0.2 mm 3 mps 762 mmHg 78%
    15:00 +28°C° 0.2 mm 3 mps 762 mmHg 79%
    16:00 +27°C° 1 mm 3 mps 762 mmHg 84%
    17:00 +26°C° 1 mm 3 mps 762 mmHg 89%
    18:00 +25°C° 1 mm 4 mps 763 mmHg 94%
    19:00 +25°C° 2.6 mm 4 mps 763 mmHg 95%
    20:00 +25°C° 2.6 mm 5 mps 764 mmHg 96%
    21:00 +23°C° 2.6 mm 5 mps 764 mmHg 96%
    22:00 +23°C° 2.2 mm 5 mps 764 mmHg 96%
    23:00 +23°C° 2.2 mm 4 mps 764 mmHg 96%

    21 January, Monday

    Time Temperature Precipitation Wind Pressure Humidity
    00:00 +23°C° 2.2 mm 4 mps 764 mmHg 96%
    01:00 +23°C° 2.1 mm 4 mps 764 mmHg 96%
    02:00 +23°C° 2.1 mm 4 mps 764 mmHg 96%
    03:00 +24°C° 2.1 mm 3 mps 764 mmHg 96%
    04:00 +22°C° 2.8 mm 3 mps 764 mmHg 96%
    05:00 +22°C° 2.8 mm 4 mps 764 mmHg 96%
    06:00 +22°C° 2.8 mm 4 mps 765 mmHg 97%
    07:00 +22°C° 1.7 mm 4 mps 765 mmHg 97%
    08:00 +22°C° 1.7 mm 4 mps 766 mmHg 97%
    09:00 +22°C° 1.7 mm 4 mps 766 mmHg 98%
    10:00 +21°C° 1.4 mm 3 mps 766 mmHg 98%
    11:00 +21°C° 1.4 mm 3 mps 765 mmHg 98%
    12:00 +21°C° 1.4 mm 3 mps 765 mmHg 98%
    13:00 +21°C° 1.3 mm 3 mps 764 mmHg 97%
    14:00 +21°C° 1.3 mm 3 mps 764 mmHg 97%
    15:00 +21°C° 1.3 mm 2 mps 763 mmHg 96%
    16:00 +21°C° 0.5 mm 2 mps 763 mmHg 96%
    17:00 +23°C° 0.5 mm 2 mps 764 mmHg 96%
    18:00 +23°C° 0.5 mm 1 mps 764 mmHg 96%
    19:00 +23°C° 0.2 mm 1 mps 764 mmHg 96%
    20:00 +23°C° 0.2 mm 1 mps 765 mmHg 96%
    21:00 +21°C° 0.2 mm 0 mps 765 mmHg 96%
    22:00 +21°C° 0.1 mm 0 mps 764 mmHg 96%
    23:00 +21°C° 0.1 mm 0 mps 764 mmHg 96%

    22 January, Tuesday

    Time Temperature Precipitation Wind Pressure Humidity
    00:00 +21°C° 0.1 mm 0 mps 764 mmHg 97%
    01:00 +21°C° 0.2 mm 0 mps 763 mmHg 97%
    02:00 +21°C° 0.2 mm 0 mps 763 mmHg 96%
    03:00 +21°C° 0.2 mm 0 mps 762 mmHg 96%
    04:00 +21°C° 0.1 mm 0 mps 762 mmHg 96%
    05:00 +21°C° 0.1 mm 0 mps 763 mmHg 96%
    06:00 +21°C° 0.1 mm 0 mps 763 mmHg 96%
    07:00 +24°C° 0 mm 1 mps 763 mmHg 94%
    08:00 +24°C° 0 mm 1 mps 763 mmHg 93%
    09:00 +25°C° 0 mm 1 mps 764 mmHg 92%
    10:00 +27°C° 0 mm 1 mps 763 mmHg 82%
    11:00 +29°C° 0 mm 2 mps 762 mmHg 73%
    12:00 +31°C° 0 mm 2 mps 762 mmHg 63%
    13:00 +30°C° 0.1 mm 2 mps 761 mmHg 70%
    14:00 +29°C° 0.1 mm 2 mps 760 mmHg 76%
    15:00 +28°C° 0.1 mm 2 mps 760 mmHg 83%
    16:00 +27°C° 0.1 mm 2 mps 760 mmHg 87%
    17:00 +26°C° 0.1 mm 2 mps 760 mmHg 91%
    18:00 +26°C° 0.1 mm 2 mps 760 mmHg 95%
    19:00 +26°C° 0.1 mm 2 mps 761 mmHg 95%
    20:00 +25°C° 0.1 mm 2 mps 761 mmHg 95%
    21:00 +25°C° 0.1 mm 2 mps 761 mmHg 95%
    22:00 +25°C° 0 mm 2 mps 761 mmHg 95%
    23:00 +25°C° 0 mm 2 mps 761 mmHg 95%
    Show more